Location: Chemnitz
(49.5500°N, 11.5830°E)
Time: 12:21:12
(UTC+02:00)

ISS - Visible Passes

Search period start: 13 May 2021 00:00
Search period end: 23 May 2021 00:00
Orbit: 417 x 422 km, 51.6° (Epoch: 13 May)

Date Brightness Start Highest point End Pass type
(mag) Time Alt. Az. Time Alt. Az. Time Alt. Az.
13 May -1.2 00:32:06 13° ENE 00:32:06 13° ENE 00:32:34 10° ENE visible
13 May -3.2 02:05:02 37° WNW 02:06:06 58° N 02:09:27 10° ENE visible
13 May -3.8 03:39:41 10° WNW 03:43:05 88° NNE 03:46:29 10° ESE visible
14 May -3.3 01:18:38 62° N 01:18:38 62° N 01:21:58 10° ENE visible
14 May -3.6 02:52:15 10° WNW 02:55:38 72° NNE 02:59:00 10° E visible
14 May -3.2 04:29:11 10° W 04:32:19 36° SSW 04:35:27 10° SE visible
14 May -3.3 22:51:17 10° SW 22:54:24 38° SSE 22:55:35 28° ESE visible
15 May -3.6 00:27:45 10° W 00:31:07 70° NNW 00:34:30 10° ENE visible
15 May -3.3 02:04:47 10° WNW 02:08:09 63° N 02:11:31 10° E visible
15 May -3.6 03:41:40 10° WNW 03:44:58 51° SSW 03:48:15 10° SE visible
15 May -2.8 22:04:14 10° SSW 22:07:06 26° SE 22:09:58 10° E visible
15 May -3.8 23:40:17 10° WSW 23:43:39 85° NNW 23:47:03 10° ENE visible
16 May -3.2 01:17:18 10° WNW 01:20:39 58° N 01:24:00 10° E visible
16 May -3.9 02:54:11 10° WNW 02:57:34 71° SSW 03:00:56 10° ESE visible
16 May -2.2 04:31:40 10° W 04:33:56 17° SW 04:36:12 10° S visible
16 May -3.9 22:52:52 10° WSW 22:56:13 75° SSE 22:59:36 10° ENE visible
17 May -3.2 00:29:48 10° W 00:33:09 58° N 00:36:30 10° ENE visible
17 May -3.9 02:06:45 10° WNW 02:10:08 88° NNE 02:13:31 10° ESE visible
17 May -2.7 03:43:51 10° W 03:46:40 25° SW 03:49:29 10° SSE visible
17 May -3.7 22:05:31 10° SW 22:08:48 54° SSE 22:12:07 10° ENE visible
17 May -3.3 23:42:18 10° W 23:45:39 62° N 23:49:00 10° ENE visible
18 May -3.6 01:19:17 10° WNW 01:22:40 73° NNE 01:22:55 67° NE visible
18 May -3.5 22:54:47 10° W 22:58:09 70° NNW 23:01:32 10° ENE visible
19 May -3.4 00:31:49 10° WNW 00:35:11 63° N 00:36:32 32° ENE visible
19 May -1.5 02:08:42 10° WNW 02:09:26 15° W 02:09:26 15° W visible
19 May -3.7 22:07:18 10° WSW 22:10:41 85° NNW 22:14:04 10° ENE visible
19 May -3.2 23:44:20 10° WNW 23:47:40 58° N 23:50:21 15° E visible
20 May -2.6 01:21:13 10° WNW 01:23:17 34° W 01:23:17 34° W visible
20 May -3.1 22:56:50 10° W 23:00:10 58° N 23:03:31 10° ENE visible
21 May -3.9 00:33:45 10° WNW 00:37:09 89° NNE 00:37:12 87° E visible
21 May -3.2 22:09:19 10° W 22:12:39 62° N 22:16:01 10° ENE visible
21 May -3.6 23:46:18 10° WNW 23:49:40 73° NNE 23:51:10 30° E visible
22 May -1.5 01:23:14 10° W 01:24:06 16° W 01:24:06 16° W visible
22 May -3.3 22:58:50 10° WNW 23:02:11 63° N 23:05:10 12° E visible
